"startDT [UTC]","vpos","CH4 [ppm]","stdev(CH4) [ppm]","CO2 [ppm]","stdev(CO2) [ppm]","H2O [ppm]","stdev(H2O)","p_LGR [torr]","T_LGR [C]","mt1_LGR [us]","mt2_LGR [us]","T_ECpre [C]","T_EC1 [C]","T_EC2 [C]","p_inlet [hPa]","p_in [hPa]","p_out [hPa]","T_inlet [C]","RH_inlet [%]","dwpt_inlet [C]","T_vent [C]","RH_vent [%]","dwpt_vent [C]","flow_vent [l min-1]","flow_inlet [l min-1]","dwpt_sample [C]","T_room [C]"
2013-03-03 00:00:00,0.0,1.9361,0.0007,406.05,0.39,252.4,35.1,138.07,30.73,24.65,36.43,0.04,-272.75,-272.75,-49,565,-927,25.4,3.9,-19.9,25.4,4.0,-19.7,5.73,2.34,-22.7,29.8
2013-03-03 00:01:00,0.0,1.9360,0.0009,405.91,0.42,255.5,28.5,138.07,30.73,24.65,36.43,0.04,-272.75,-272.75,-49,565,-927,25.4,3.8,-20.1,25.4,4.0,-19.7,5.73,2.35,-22.7,29.8
2013-03-03 00:02:00,0.0,1.9357,0.0010,405.92,0.42,254.5,31.3,138.07,30.73,24.66,36.43,0.04,-272.75,-272.75,-49,565,-927,25.4,3.9,-19.9,25.4,4.0,-19.6,5.73,2.36,-22.7,29.9
2013-03-03 00:03:00,0.0,1.9361,0.0008,406.01,0.42,262.5,25.8,138.07,30.73,24.65,36.43,0.04,-272.75,-272.75,-49,565,-927,25.4,3.9,-19.9,25.4,4.0,-19.6,5.73,2.35,-22.7,29.9
2013-03-03 00:04:00,0.0,1.9359,0.0008,405.89,0.45,264.4,34.3,138.06,30.74,24.66,36.44,0.04,-272.75,-272.75,-49,565,-928,25.4,3.9,-19.9,25.4,4.0,-19.6,5.73,2.34,-22.7,29.8
2013-03-03 00:05:00,0.0,1.9357,0.0009,405.94,0.48,261.4,32.6,138.07,30.74,24.66,36.43,0.04,-272.75,-272.75,-49,565,-927,25.4,3.9,-19.9,25.4,4.0,-19.6,5.73,2.34,-22.8,29.9
2013-03-03 00:06:00,0.0,1.9356,0.0008,406.09,0.46,257.2,33.3,138.07,30.74,24.66,36.42,0.04,-272.75,-272.75,-49,566,-927,25.4,3.9,-19.9,25.4,4.0,-19.6,5.73,2.33,-22.7,29.8
2013-03-03 00:07:00,0.0,1.9361,0.0011,406.06,0.44,253.6,26.2,138.07,30.74,24.66,36.43,0.04,-272.75,-272.75,-49,565,-928,25.4,3.9,-19.9,25.4,4.0,-19.6,5.73,2.31,-22.8,29.8
2013-03-03 00:08:00,0.0,1.9360,0.0008,405.98,0.46,254.0,30.8,138.07,30.74,24.65,36.43,0.04,-272.75,-272.75,-49,565,-927,25.4,3.9,-19.9,25.4,4.0,-19.6,5.73,2.31,-22.7,29.8
2013-03-03 00:09:00,0.0,1.9352,0.0008,405.87,0.51,264.4,35.7,138.07,30.74,24.66,36.44,0.04,-272.75,-272.76,-49,565,-927,25.4,3.9,-19.9,25.4,4.0,-19.6,5.73,2.31,-22.7,29.8
2013-03-03 00:10:00,0.0,1.9360,0.0008,405.95,0.38,258.3,31.2,138.07,30.74,24.65,36.43,0.04,-272.75,-272.75,-49,565,-927,25.4,3.9,-19.8,25.4,4.0,-19.6,5.73,2.32,-22.8,29.9
2013-03-03 00:11:00,0.0,1.9354,0.0008,405.99,0.38,257.2,32.7,138.07,30.74,24.66,36.43,0.04,-272.75,-272.75,-49,566,-927,25.4,3.9,-19.8,25.4,4.0,-19.7,5.73,2.34,-22.7,29.8
2013-03-03 00:12:00,0.0,1.9357,0.0008,405.88,0.42,252.1,32.3,138.07,30.74,24.66,36.43,0.04,-272.75,-272.75,-49,565,-927,25.4,3.9,-19.8,25.4,4.0,-19.5,5.73,2.35,-22.7,29.8
2013-03-03 00:13:00,0.0,1.9355,0.0008,405.95,0.42,256.4,25.4,138.07,30.74,24.66,36.43,0.04,-272.75,-272.75,-49,565,-927,25.5,3.9,-19.8,25.4,4.0,-19.5,5.73,2.35,-22.7,29.8
2013-03-03 00:14:00,0.0,1.9361,0.0009,405.94,0.36,259.5,23.9,138.07,30.74,24.65,36.43,0.04,-272.75,-272.75,-49,566,-927,25.4,3.9,-19.7,25.4,4.0,-19.5,5.73,2.35,-22.8,29.8
2013-03-03 00:15:00,0.0,1.9354,0.0008,405.85,0.43,264.5,37.0,138.07,30.74,24.66,36.43,0.04,-272.75,-272.75,-49,565,-927,25.4,3.9,-19.7,25.4,4.0,-19.5,5.73,2.35,-22.7,29.8
2013-03-03 00:16:00,0.0,1.9354,0.0008,405.88,0.38,246.6,31.0,138.07,30.74,24.66,36.43,0.04,-272.75,-272.75,-49,565,-927,25.4,3.9,-19.8,25.4,4.0,-19.5,5.73,2.35,-22.8,29.9
2013-03-03 00:17:00,0.0,1.9355,0.0008,405.96,0.40,252.3,31.6,138.07,30.74,24.65,36.43,0.04,-272.75,-272.76,-49,566,-927,25.4,4.0,-19.7,25.4,4.0,-19.5,5.73,2.34,-22.8,29.8
2013-03-03 00:18:00,0.0,1.9352,0.0010,405.92,0.47,257.2,27.2,138.07,30.74,24.66,36.42,0.04,-272.75,-272.75,-49,565,-927,25.4,4.0,-19.7,25.4,4.1,-19.4,5.73,2.33,-22.8,29.9
2013-03-03 00:19:00,0.0,1.9352,0.0009,405.83,0.39,262.5,27.8,138.07,30.74,24.66,36.43,0.04,-272.75,-272.75,-49,565,-927,25.4,3.9,-19.7,25.4,4.1,-19.4,5.73,2.32,-22.8,29.8
2013-03-03 00:20:00,0.0,1.9350,0.0010,405.90,0.41,258.1,32.9,138.07,30.74,24.66,36.43,0.04,-272.75,-272.75,-49,566,-927,25.4,3.9,-19.8,25.4,4.1,-19.5,5.73,2.31,-22.8,29.8
2013-03-03 00:21:00,0.0,1.9348,0.0010,405.95,0.45,261.4,35.4,138.06,30.75,24.66,36.42,0.04,-272.75,-272.75,-49,565,-927,25.5,3.9,-19.7,25.4,4.1,-19.4,5.73,2.31,-22.8,29.8
2013-03-03 00:22:00,0.0,1.9350,0.0009,405.84,0.39,253.3,30.7,138.06,30.75,24.66,36.43,0.04,-272.75,-272.75,-49,566,-927,25.4,3.9,-19.7,25.4,4.1,-19.4,5.73,2.32,-22.8,29.9
2013-03-03 00:23:00,0.0,1.9351,0.0011,405.92,0.34,258.5,33.2,138.07,30.75,24.66,36.43,0.04,-272.75,-272.75,-49,566,-927,25.4,4.0,-19.6,25.4,4.1,-19.4,5.73,2.32,-22.8,29.8
2013-03-03 00:24:00,0.0,1.9351,0.0008,405.87,0.38,255.2,31.7,138.06,30.76,24.66,36.43,0.04,-272.75,-272.75,-49,565,-927,25.4,4.0,-19.7,25.4,4.1,-19.4,5.73,2.33,-22.8,29.8
2013-03-03 00:25:00,0.0,1.9350,0.0009,405.87,0.34,257.9,24.8,138.06,30.76,24.66,36.43,0.04,-272.75,-272.76,-49,565,-927,25.4,3.9,-19.8,25.4,4.1,-19.4,5.73,2.35,-22.8,29.9
2013-03-03 00:26:00,0.0,1.9349,0.0008,405.75,0.42,263.1,30.7,138.07,30.76,24.66,36.43,0.04,-272.75,-272.75,-49,566,-927,25.4,4.0,-19.7,25.4,4.1,-19.4,5.73,2.35,-22.8,29.8
2013-03-03 00:27:00,0.0,1.9347,0.0009,405.88,0.35,256.5,34.9,138.07,30.76,24.66,36.43,0.04,-272.75,-272.75,-49,566,-927,25.4,4.0,-19.7,25.4,4.1,-19.4,5.73,2.36,-22.8,29.9
2013-03-03 00:28:00,0.0,1.9347,0.0009,405.82,0.45,258.8,38.3,138.06,30.76,24.66,36.43,0.04,-272.75,-272.75,-49,566,-927,25.4,3.9,-19.7,25.4,4.1,-19.4,5.73,2.35,-22.8,29.8
2013-03-03 00:29:00,0.0,1.9351,0.0009,405.89,0.36,257.4,31.9,138.07,30.76,24.66,36.43,0.04,-272.75,-272.75,-49,566,-927,25.4,4.0,-19.7,25.4,4.1,-19.4,5.73,2.34,-22.8,29.9
2013-03-03 00:30:00,0.0,1.9346,0.0009,405.93,0.44,260.1,32.7,138.07,30.76,24.66,36.42,0.04,-272.76,-272.75,-49,566,-927,25.4,3.9,-19.8,25.4,4.1,-19.3,5.73,2.33,-22.8,29.8
2013-03-03 00:31:00,0.0,1.9349,0.0008,405.90,0.43,251.2,27.7,138.07,30.76,24.66,36.42,0.04,-272.75,-272.75,-49,566,-927,25.4,4.0,-19.6,25.4,4.1,-19.4,5.73,2.33,-22.8,29.9
2013-03-03 00:32:00,0.0,1.9350,0.0009,405.68,0.42,258.1,32.7,138.06,30.76,24.66,36.43,0.04,-272.75,-272.75,-49,566,-927,25.4,4.0,-19.7,25.4,4.1,-19.3,5.73,2.32,-22.8,29.9
2013-03-03 00:33:00,0.0,1.9347,0.0009,405.87,0.37,259.2,27.9,138.07,30.76,24.66,36.43,0.04,-272.75,-272.75,-49,566,-927,25.4,4.0,-19.7,25.4,4.1,-19.4,5.73,2.31,-22.8,29.9
2013-03-03 00:34:00,0.0,1.9349,0.0009,405.72,0.43,258.6,25.6,138.07,30.77,24.66,36.43,0.04,-272.75,-272.75,-49,566,-927,25.4,4.0,-19.6,25.5,4.1,-19.3,5.73,2.31,-22.8,29.9
2013-03-03 00:35:00,0.0,1.9352,0.0011,405.79,0.42,267.3,33.1,138.07,30.77,24.66,36.43,0.04,-272.75,-272.75,-49,566,-927,25.4,4.0,-19.6,25.4,4.1,-19.3,5.73,2.32,-22.8,29.9
2013-03-03 00:36:00,0.0,1.9348,0.0010,405.85,0.44,259.8,26.5,138.06,30.77,24.66,36.43,0.04,-272.75,-272.75,-49,566,-927,25.5,4.0,-19.6,25.4,4.1,-19.2,5.73,2.33,-22.8,29.9
2013-03-03 00:37:00,0.0,1.9346,0.0009,405.90,0.48,261.9,30.9,138.07,30.77,24.66,36.42,0.04,-272.75,-272.75,-49,566,-927,25.5,4.0,-19.6,25.4,4.1,-19.3,5.73,2.35,-22.8,29.9
2013-03-03 00:38:00,0.0,1.9353,0.0009,405.92,0.41,254.5,24.1,138.07,30.77,24.65,36.42,0.04,-272.75,-272.75,-49,566,-927,25.5,4.0,-19.5,25.4,4.1,-19.2,5.73,2.35,-22.8,29.8
2013-03-03 00:39:00,0.0,1.9350,0.0010,405.90,0.37,263.5,30.7,138.07,30.77,24.66,36.43,0.04,-272.75,-272.75,-49,566,-927,25.5,4.0,-19.4,25.5,4.1,-19.2,5.73,2.36,-22.8,29.9
2013-03-03 00:40:00,0.0,1.9348,0.0010,405.73,0.38,262.0,28.3,138.06,30.77,24.66,36.43,0.04,-272.76,-272.75,-49,566,-927,25.5,4.0,-19.5,25.4,4.2,-19.1,5.73,2.35,-22.8,29.9
2013-03-03 00:41:00,0.0,1.9351,0.0009,405.81,0.39,260.7,26.2,138.07,30.78,24.66,36.43,0.04,-272.75,-272.75,-49,566,-927,25.5,4.0,-19.5,25.4,4.1,-19.2,5.73,2.34,-22.8,29.9
2013-03-03 00:42:00,0.0,1.9351,0.0008,405.91,0.36,264.4,23.5,138.07,30.78,24.66,36.43,0.04,-272.75,-272.75,-49,566,-928,25.5,4.0,-19.4,25.5,4.1,-19.1,5.73,2.33,-22.8,29.8
2013-03-03 00:43:00,0.0,1.9351,0.0010,405.94,0.47,254.5,29.6,138.07,30.78,24.66,36.42,0.04,-272.75,-272.75,-49,566,-927,25.5,4.0,-19.6,25.5,4.1,-19.2,5.73,2.32,-22.8,29.9
2013-03-03 00:44:00,0.0,1.9351,0.0008,405.89,0.41,253.8,27.8,138.06,30.78,24.65,36.42,0.04,-272.75,-272.75,-49,566,-927,25.5,3.9,-19.7,25.4,4.1,-19.3,5.73,2.32,-22.8,29.9
2013-03-03 00:45:00,0.0,1.9352,0.0008,405.98,0.42,261.0,28.7,138.06,30.78,24.65,36.42,0.04,-272.75,-272.75,-49,566,-927,25.5,3.9,-19.7,25.5,4.0,-19.4,5.73,2.32,-22.8,29.8
2013-03-03 00:46:00,0.0,1.9350,0.0009,406.00,0.43,255.8,31.8,138.06,30.78,24.66,36.43,0.04,-272.75,-272.75,-49,566,-927,25.5,3.9,-19.8,25.5,4.0,-19.5,5.73,2.32,-22.8,29.8
2013-03-03 00:47:00,0.0,1.9354,0.0009,405.91,0.34,259.0,32.5,138.06,30.78,24.66,36.43,0.04,-272.75,-272.75,-49,566,-928,25.5,3.9,-19.9,25.5,4.0,-19.6,5.73,2.32,-22.8,29.8
2013-03-03 00:48:00,0.0,1.9361,0.0009,405.96,0.40,255.7,32.0,138.07,30.78,24.66,36.42,0.04,-272.75,-272.75,-49,566,-927,25.5,3.9,-20.0,25.4,4.0,-19.7,5.73,2.33,-22.8,29.8
2013-03-03 00:49:00,0.0,1.9362,0.0009,405.89,0.35,259.5,29.3,138.06,30.78,24.65,36.43,0.04,-272.75,-272.76,-49,566,-927,25.5,3.8,-20.0,25.4,3.9,-19.8,5.73,2.34,-22.8,29.8
2013-03-03 00:50:00,0.0,1.9368,0.0009,405.89,0.44,252.2,29.2,138.06,30.79,24.66,36.43,0.04,-272.76,-272.75,-49,566,-928,25.5,3.8,-20.0,25.4,3.9,-19.8,5.73,2.35,-22.8,29.8
2013-03-03 00:51:00,0.0,1.9369,0.0010,405.94,0.41,254.3,27.6,138.06,30.79,24.66,36.43,0.04,-272.75,-272.76,-49,566,-927,25.5,3.8,-20.1,25.4,3.9,-19.9,5.73,2.35,-22.8,29.9
2013-03-03 00:52:00,0.0,1.9372,0.0008,406.02,0.42,258.8,25.1,138.06,30.79,24.66,36.43,0.04,-272.75,-272.75,-49,566,-928,25.5,3.8,-20.2,25.4,3.9,-19.9,5.73,2.35,-22.8,29.9
2013-03-03 00:53:00,0.0,1.9371,0.0009,406.05,0.38,255.0,39.3,138.06,30.79,24.66,36.42,0.04,-272.75,-272.75,-49,566,-927,25.5,3.8,-20.2,25.4,3.9,-19.9,5.73,2.35,-22.8,29.8
2013-03-03 00:54:00,0.0,1.9376,0.0009,406.02,0.41,256.8,30.0,138.06,30.79,24.65,36.43,0.04,-272.75,-272.75,-49,566,-927,25.5,3.8,-20.3,25.5,3.9,-19.9,5.73,2.34,-22.8,29.8
2013-03-03 00:55:00,0.0,1.9374,0.0008,406.12,0.37,260.8,25.9,138.06,30.79,24.66,36.42,0.04,-272.75,-272.75,-49,566,-928,25.5,3.7,-20.3,25.4,3.9,-20.0,5.73,2.34,-22.8,29.9
2013-03-03 00:56:00,0.0,1.9377,0.0009,406.09,0.40,249.1,27.5,138.06,30.79,24.65,36.42,0.04,-272.75,-272.75,-49,566,-927,25.5,3.7,-20.3,25.4,3.8,-20.0,5.73,2.33,-22.8,29.8
2013-03-03 00:57:00,0.0,1.9374,0.0009,406.11,0.39,254.0,29.9,138.06,30.79,24.66,36.43,0.04,-272.75,-272.75,-49,566,-927,25.5,3.8,-20.3,25.4,3.8,-20.0,5.73,2.33,-22.8,29.8
2013-03-03 00:58:00,0.0,1.9373,0.0009,406.03,0.35,253.4,29.1,138.06,30.79,24.66,36.43,0.04,-272.75,-272.75,-49,566,-928,25.5,3.8,-20.2,25.4,3.8,-20.0,5.73,2.32,-22.8,29.8
2013-03-03 00:59:00,0.0,1.9378,0.0009,406.04,0.41,246.3,32.8,138.06,30.79,24.65,36.42,0.04,-272.75,-272.75,-49,566,-927,25.5,3.7,-20.3,25.5,3.8,-20.1,5.73,2.32,-22.8,29.8
2013-03-03 01:00:00,0.0,1.9379,0.0008,405.98,0.33,258.3,37.9,138.06,30.79,24.66,36.43,0.04,-272.75,-272.76,-49,566,-928,25.5,3.7,-20.3,25.5,3.8,-20.0,5.73,2.31,-22.8,29.8
2013-03-03 01:01:00,0.0,1.9377,0.0008,406.05,0.40,254.6,34.3,138.06,30.80,24.66,36.42,0.04,-272.75,-272.75,-49,566,-927,25.5,3.7,-20.3,25.5,3.8,-20.0,5.73,2.31,-22.8,29.9
2013-03-03 01:02:00,0.0,1.9376,0.0009,406.11,0.46,257.6,27.1,138.06,30.80,24.66,36.42,0.04,-272.75,-272.75,-49,566,-927,25.5,3.7,-20.4,25.4,3.8,-20.1,5.73,2.32,-22.8,29.9
2013-03-03 01:03:00,0.0,1.9378,0.0010,406.02,0.31,256.7,31.2,138.06,30.80,24.65,36.43,0.04,-272.75,-272.75,-49,566,-928,25.5,3.7,-20.3,25.4,3.8,-20.1,5.73,2.33,-22.8,29.9
2013-03-03 01:04:00,0.0,1.9378,0.0007,405.95,0.38,264.9,33.1,138.06,30.80,24.66,36.42,0.04,-272.75,-272.75,-49,566,-927,25.5,3.7,-20.4,25.4,3.8,-20.1,5.73,2.33,-22.8,29.9
2013-03-03 01:05:00,0.0,1.9378,0.0009,406.11,0.38,260.8,29.7,138.06,30.80,24.66,36.42,0.04,-272.75,-272.75,-49,566,-928,25.5,3.7,-20.4,25.4,3.8,-20.1,5.73,2.34,-22.8,29.9
2013-03-03 01:06:00,0.0,1.9378,0.0009,406.15,0.43,261.7,33.5,138.06,30.80,24.66,36.42,0.04,-272.75,-272.75,-49,566,-928,25.5,3.7,-20.4,25.5,3.8,-20.1,5.73,2.34,-22.8,29.9
2013-03-03 01:07:00,0.0,1.9380,0.0008,406.09,0.44,262.8,31.6,138.06,30.80,24.66,36.43,0.04,-272.75,-272.75,-49,566,-927,25.5,3.7,-20.4,25.5,3.8,-20.1,5.73,2.35,-22.8,29.9
2013-03-03 01:08:00,0.0,1.9377,0.0009,406.07,0.39,260.0,30.8,138.06,30.80,24.66,36.42,0.04,-272.75,-272.76,-49,566,-928,25.5,3.7,-20.4,25.5,3.8,-20.1,5.73,2.35,-22.8,29.9
2013-03-03 01:09:00,0.0,1.9375,0.0008,406.03,0.39,253.4,28.4,138.06,30.80,24.66,36.43,0.04,-272.75,-272.75,-49,566,-927,25.5,3.7,-20.4,25.5,3.8,-20.0,5.73,2.35,-22.8,29.8
2013-03-03 01:10:00,0.0,1.9380,0.0009,406.06,0.42,265.7,28.1,138.06,30.81,24.65,36.43,0.04,-272.75,-272.75,-49,566,-927,25.5,3.7,-20.3,25.5,3.8,-20.1,5.73,2.34,-22.8,29.8
2013-03-03 01:11:00,0.0,1.9379,0.0010,405.97,0.37,262.2,30.6,138.06,30.81,24.66,36.43,0.04,-272.75,-272.75,-49,566,-928,25.5,3.7,-20.3,25.4,3.8,-20.1,5.73,2.35,-22.8,29.9
2013-03-03 01:12:00,0.0,1.9379,0.0010,406.04,0.39,262.1,27.5,138.06,30.81,24.66,36.43,0.04,-272.75,-272.75,-49,566,-927,25.5,3.7,-20.3,25.5,3.8,-20.1,5.73,2.34,-22.8,29.8
2013-03-03 01:13:00,0.0,1.9380,0.0010,406.03,0.41,264.9,28.0,138.06,30.81,24.65,36.43,0.04,-272.75,-272.75,-49,566,-928,25.5,3.7,-20.3,25.5,3.8,-20.0,5.73,2.33,-22.8,29.9
2013-03-03 01:14:00,0.0,1.9377,0.0009,406.04,0.44,261.5,33.0,138.06,30.81,24.66,36.43,0.04,-272.75,-272.76,-49,566,-927,25.5,3.8,-20.2,25.5,3.9,-19.9,5.73,2.33,-22.8,29.8
2013-03-03 01:15:00,0.0,1.9377,0.0010,405.95,0.35,262.1,29.1,138.06,30.81,24.65,36.43,0.04,-272.75,-272.75,-49,566,-927,25.5,3.7,-20.4,25.5,3.8,-20.0,5.73,2.31,-22.8,29.8
2013-03-03 01:16:00,0.0,1.9371,0.0010,405.99,0.31,259.6,33.0,138.06,30.81,24.66,36.42,0.04,-272.75,-272.76,-49,566,-928,25.5,3.8,-20.1,25.4,3.9,-19.9,5.73,2.32,-22.8,29.8
2013-03-03 01:17:00,0.0,1.9373,0.0009,405.98,0.38,256.1,30.1,138.06,30.81,24.66,36.43,0.04,-272.75,-272.75,-49,566,-927,25.5,3.8,-20.2,25.4,3.9,-19.9,5.73,2.31,-22.8,29.9
2013-03-03 01:18:00,0.0,1.9370,0.0010,406.06,0.39,256.8,32.0,138.06,30.82,24.66,36.42,0.04,-272.75,-272.76,-49,566,-928,25.5,3.8,-20.1,25.5,3.9,-19.8,5.73,2.32,-22.8,29.9
2013-03-03 01:19:00,0.0,1.9376,0.0010,405.90,0.41,249.2,26.7,138.06,30.82,24.66,36.43,0.04,-272.75,-272.75,-49,566,-928,25.5,3.8,-20.1,25.5,3.9,-19.8,5.73,2.33,-22.8,29.9
2013-03-03 01:20:00,0.0,1.9377,0.0008,406.14,0.41,257.0,30.0,138.06,30.82,24.66,36.42,0.04,-272.75,-272.75,-49,566,-927,25.5,3.8,-20.1,25.5,3.9,-19.8,5.73,2.34,-22.8,29.9
2013-03-03 01:21:00,0.0,1.9375,0.0009,406.09,0.46,266.5,33.3,138.06,30.82,24.66,36.42,0.04,-272.75,-272.75,-49,566,-928,25.5,3.8,-20.1,25.5,3.9,-19.8,5.73,2.34,-22.8,29.9
2013-03-03 01:22:00,0.0,1.9373,0.0007,405.92,0.39,262.7,27.5,138.06,30.82,24.66,36.42,0.04,-272.75,-272.75,-49,566,-927,25.5,3.9,-19.9,25.4,3.9,-19.8,5.73,2.35,-22.8,29.9
2013-03-03 01:23:00,0.0,1.9373,0.0011,405.91,0.43,256.7,30.6,138.06,30.82,24.66,36.43,0.04,-272.75,-272.75,-49,566,-927,25.5,3.9,-19.9,25.5,4.0,-19.6,5.73,2.35,-22.8,29.9
2013-03-03 01:24:00,0.0,1.9374,0.0008,405.96,0.38,257.8,27.4,138.06,30.82,24.66,36.43,0.04,-272.75,-272.75,-49,566,-928,25.5,3.9,-19.7,25.5,4.0,-19.5,5.73,2.35,-22.8,29.9
2013-03-03 01:25:00,0.0,1.9375,0.0009,406.05,0.34,248.6,29.0,138.06,30.82,24.66,36.42,0.04,-272.75,-272.75,-49,566,-927,25.5,3.9,-19.8,25.4,4.0,-19.6,5.73,2.34,-22.8,29.9
2013-03-03 01:26:00,0.0,1.9373,0.0007,406.01,0.44,253.8,28.7,138.06,30.82,24.66,36.43,0.04,-272.75,-272.75,-49,566,-928,25.5,3.9,-19.7,25.5,4.0,-19.5,5.73,2.34,-22.8,29.9
2013-03-03 01:27:00,0.0,1.9374,0.0010,406.06,0.37,245.3,33.0,138.06,30.82,24.65,36.42,0.04,-272.75,-272.76,-49,566,-928,25.5,3.9,-19.8,25.5,4.0,-19.4,5.73,2.34,-22.8,29.9
2013-03-03 01:28:00,0.0,1.9380,0.0009,406.10,0.42,267.3,35.2,138.06,30.82,24.65,36.43,0.04,-272.75,-272.76,-49,566,-927,25.5,3.9,-19.9,25.5,4.0,-19.5,5.73,2.33,-22.8,29.9
2013-03-03 01:29:00,0.0,1.9373,0.0010,406.03,0.36,258.6,26.6,138.06,30.83,24.66,36.42,0.04,-272.75,-272.75,-49,566,-928,25.5,3.9,-19.8,25.5,4.0,-19.5,5.73,2.32,-22.8,29.9
2013-03-03 01:30:00,0.0,1.9372,0.0008,406.05,0.45,258.3,29.4,138.06,30.83,24.66,36.43,0.04,-272.75,-272.75,-49,566,-928,25.5,3.9,-19.8,25.5,4.0,-19.5,5.73,2.32,-22.8,29.9
2013-03-03 01:31:00,0.0,1.9374,0.0008,405.98,0.31,254.6,25.1,138.06,30.83,24.65,36.43,0.04,-272.75,-272.75,-49,566,-927,25.5,3.9,-19.7,25.5,4.0,-19.5,5.73,2.32,-22.8,29.9
2013-03-03 01:32:00,0.0,1.9369,0.0008,406.07,0.43,251.8,29.7,138.06,30.83,24.66,36.42,0.04,-272.75,-272.75,-49,566,-928,25.5,3.9,-19.8,25.5,4.0,-19.6,5.73,2.31,-22.8,29.9
2013-03-03 01:33:00,0.0,1.9371,0.0009,405.99,0.42,253.5,30.3,138.06,30.83,24.66,36.43,0.04,-272.75,-272.75,-49,566,-927,25.5,3.8,-20.0,25.5,4.0,-19.7,5.73,2.33,-22.8,29.9
2013-03-03 01:34:00,0.0,1.9373,0.0010,405.91,0.38,258.3,31.4,138.06,30.83,24.66,36.43,0.04,-272.75,-272.76,-49,566,-927,25.5,3.8,-20.0,25.5,3.9,-19.8,5.73,2.33,-22.8,29.9
2013-03-03 01:35:00,0.0,1.9375,0.0009,405.96,0.41,254.9,30.7,138.06,30.83,24.66,36.43,0.04,-272.76,-272.76,-49,566,-928,25.5,3.8,-20.1,25.5,3.9,-19.8,5.73,2.34,-22.8,29.9
2013-03-03 01:36:00,0.0,1.9378,0.0009,405.92,0.41,257.8,29.8,138.06,30.84,24.65,36.43,0.04,-272.75,-272.75,-49,566,-927,25.5,3.8,-20.1,25.5,3.9,-19.8,5.73,2.34,-22.8,29.9
2013-03-03 01:37:00,0.0,1.9379,0.0008,405.97,0.44,255.7,30.7,138.06,30.84,24.66,36.43,0.04,-272.75,-272.75,-49,566,-927,25.5,3.8,-20.2,25.5,3.9,-19.9,5.73,2.34,-22.8,29.9
2013-03-03 01:38:00,0.0,1.9379,0.0009,406.10,0.44,256.9,31.9,138.06,30.84,24.66,36.42,0.04,-272.75,-272.75,-49,566,-928,25.5,3.7,-20.3,25.5,3.9,-19.9,5.73,2.35,-22.8,29.9
2013-03-03 01:39:00,0.0,1.9382,0.0011,406.07,0.38,248.9,31.9,138.06,30.84,24.66,36.42,0.04,-272.75,-272.76,-49,566,-927,25.5,3.8,-20.2,25.5,3.9,-19.9,5.73,2.35,-22.8,29.9
2013-03-03 01:40:00,0.0,1.9379,0.0010,406.10,0.33,249.7,32.7,138.06,30.84,24.66,36.43,0.04,-272.75,-272.75,-49,566,-928,25.5,3.8,-20.2,25.5,3.9,-20.0,5.73,2.35,-22.8,29.9
2013-03-03 01:41:00,0.0,1.9381,0.0010,405.98,0.40,247.3,34.4,138.06,30.85,24.66,36.43,0.04,-272.75,-272.76,-49,566,-928,25.5,3.7,-20.3,25.5,3.9,-20.0,5.73,2.34,-22.8,29.9
2013-03-03 01:42:00,0.0,1.9382,0.0010,406.08,0.32,261.2,29.9,138.06,30.85,24.65,36.42,0.04,-272.76,-272.75,-49,566,-927,25.5,3.7,-20.3,25.5,3.8,-20.0,5.73,2.34,-22.8,29.9
2013-03-03 01:43:00,0.0,1.9382,0.0008,406.01,0.41,252.7,32.9,138.06,30.85,24.65,36.43,0.04,-272.75,-272.75,-49,566,-928,25.5,3.7,-20.3,25.5,3.8,-20.1,5.73,2.33,-22.8,29.9
2013-03-03 01:44:00,0.0,1.9382,0.0010,406.02,0.39,256.0,25.9,138.06,30.85,24.66,36.42,0.04,-272.75,-272.75,-49,566,-927,25.5,3.7,-20.4,25.5,3.9,-19.9,5.73,2.33,-22.8,30.0
2013-03-03 01:45:00,0.0,1.9382,0.0008,405.99,0.39,259.1,30.1,138.06,30.85,24.65,36.42,0.04,-272.75,-272.76,-49,566,-928,25.6,3.7,-20.3,25.5,3.9,-19.9,5.73,2.32,-22.8,29.9
2013-03-03 01:46:00,0.0,1.9379,0.0010,406.07,0.39,254.8,27.6,138.06,30.85,24.66,36.43,0.04,-272.75,-272.75,-49,566,-928,25.6,3.7,-20.3,25.5,3.9,-20.0,5.73,2.32,-22.8,29.9
2013-03-03 01:47:00,0.0,1.9381,0.0009,406.01,0.36,255.3,34.1,138.06,30.85,24.65,36.43,0.04,-272.75,-272.75,-49,566,-927,25.6,3.8,-20.2,25.5,3.9,-19.9,5.73,2.32,-22.8,29.9
2013-03-03 01:48:00,0.0,1.9379,0.0009,406.08,0.33,250.4,31.3,138.06,30.85,24.66,36.43,0.04,-272.76,-272.75,-49,566,-928,25.5,3.8,-20.2,25.5,3.9,-20.0,5.73,2.32,-22.8,29.9
2013-03-03 01:49:00,0.0,1.9379,0.0008,406.08,0.40,251.5,29.8,138.06,30.85,24.66,36.43,0.04,-272.75,-272.75,-49,566,-928,25.5,3.7,-20.3,25.5,3.8,-20.0,5.73,2.32,-22.8,30.0
2013-03-03 01:50:00,0.0,1.9378,0.0010,406.03,0.39,257.2,30.0,138.06,30.85,24.66,36.43,0.04,-272.75,-272.75,-49,566,-928,25.6,3.7,-20.3,25.5,3.8,-20.0,5.73,2.34,-22.8,30.0
2013-03-03 01:51:00,0.0,1.9382,0.0010,406.04,0.38,247.1,36.5,138.06,30.86,24.66,36.42,0.04,-272.75,-272.75,-49,566,-928,25.6,3.8,-20.2,25.5,3.8,-20.1,5.73,2.33,-22.8,29.9
2013-03-03 01:52:00,0.0,1.9382,0.0009,406.05,0.39,253.5,34.6,138.06,30.86,24.65,36.43,0.04,-272.75,-272.75,-49,566,-927,25.5,3.8,-20.2,25.5,3.8,-20.0,5.73,2.35,-22.8,29.9
2013-03-03 01:53:00,0.0,1.9381,0.0008,405.99,0.42,254.0,31.8,138.06,30.86,24.65,36.43,0.04,-272.75,-272.75,-49,566,-928,25.6,3.7,-20.2,25.5,3.8,-20.0,5.73,2.35,-22.8,29.9
2013-03-03 01:54:00,0.0,1.9382,0.0008,406.08,0.41,247.8,34.0,138.06,30.86,24.66,36.42,0.04,-272.75,-272.75,-49,567,-928,25.6,3.8,-20.2,25.5,3.8,-20.0,5.73,2.35,-22.8,29.9
2013-03-03 01:55:00,0.0,1.9378,0.0008,406.07,0.38,247.0,31.1,138.06,30.87,24.66,36.42,0.04,-272.75,-272.76,-49,567,-928,25.6,3.7,-20.2,25.5,3.8,-20.0,5.73,2.35,-22.8,29.9
2013-03-03 01:56:00,0.0,1.9378,0.0009,406.09,0.34,247.4,31.5,138.06,30.87,24.66,36.43,0.04,-272.75,-272.75,-49,566,-928,25.5,3.7,-20.3,25.5,3.8,-20.0,5.73,2.35,-22.8,29.9
2013-03-03 01:57:00,0.0,1.9379,0.0010,406.06,0.41,250.6,35.3,138.06,30.87,24.66,36.42,0.04,-272.75,-272.75,-49,567,-927,25.6,3.8,-20.2,25.5,3.9,-19.8,5.73,2.34,-22.8,29.9
2013-03-03 01:58:00,0.0,1.9380,0.0009,406.04,0.34,248.5,31.1,138.06,30.87,24.65,36.42,0.04,-272.75,-272.75,-49,566,-928,25.6,3.8,-20.0,25.5,3.9,-19.8,5.73,2.34,-22.9,29.9
2013-03-03 01:59:00,0.0,1.9383,0.0008,406.19,0.45,248.2,29.1,138.06,30.87,24.66,36.42,0.04,-272.76,-272.75,-49,567,-928,25.6,3.8,-20.0,25.5,3.9,-19.8,5.73,2.33,-22.9,29.9
2013-03-03 02:00:00,0.0,1.9384,0.0008,406.15,0.40,256.3,29.7,138.06,30.87,24.66,36.42,0.04,-272.75,-272.75,-49,567,-927,25.6,3.8,-20.0,25.5,3.9,-19.8,5.73,2.32,-22.9,29.9
2013-03-03 02:01:00,0.0,1.9383,0.0010,406.06,0.38,248.9,32.9,138.06,30.87,24.66,36.43,0.04,-272.75,-272.75,-49,566,-928,25.6,3.8,-20.0,25.5,3.9,-19.7,5.73,2.32,-22.8,29.9
2013-03-03 02:02:00,0.0,1.9384,0.0012,406.19,0.41,250.1,31.8,138.06,30.87,24.66,36.42,0.04,-272.75,-272.75,-49,566,-928,25.5,3.9,-20.0,25.5,3.9,-19.7,5.73,2.32,-22.9,29.9
2013-03-03 02:03:00,0.0,1.9386,0.0009,406.07,0.41,256.3,31.4,138.06,30.87,24.66,36.43,0.04,-272.75,-272.75,-49,566,-928,25.6,3.8,-20.0,25.5,3.9,-19.8,5.73,2.32,-22.8,29.9
2013-03-03 02:04:00,0.0,1.9387,0.0008,406.17,0.38,250.1,29.3,138.06,30.87,24.66,36.42,0.04,-272.75,-272.75,-49,566,-928,25.6,3.8,-20.0,25.5,3.9,-19.8,5.73,2.33,-22.9,29.9
2013-03-03 02:05:00,0.0,1.9386,0.0009,406.07,0.48,251.0,28.5,138.06,30.87,24.66,36.42,0.04,-272.75,-272.75,-49,566,-928,25.6,3.8,-20.0,25.5,3.9,-19.7,5.73,2.33,-22.9,29.9
2013-03-03 02:06:00,0.0,1.9392,0.0010,406.16,0.45,248.7,28.4,138.06,30.87,24.65,36.42,0.04,-272.75,-272.75,-49,567,-928,25.6,3.8,-20.0,25.5,3.9,-19.7,5.73,2.33,-22.9,29.9
2013-03-03 02:07:00,0.0,1.9386,0.0009,406.28,0.41,252.8,26.1,138.06,30.88,24.66,36.42,0.04,-272.75,-272.75,-49,566,-928,25.6,3.9,-19.9,25.5,3.9,-19.7,5.73,2.34,-22.9,29.9
2013-03-03 02:08:00,0.0,1.9388,0.0010,406.20,0.40,243.0,32.0,138.06,30.88,24.66,36.42,0.04,-272.75,-272.76,-49,567,-928,25.5,3.8,-20.0,25.5,4.0,-19.6,5.73,2.34,-22.8,29.9
2013-03-03 02:09:00,0.0,1.9389,0.0010,406.21,0.36,248.3,29.6,138.06,30.88,24.66,36.42,0.04,-272.75,-272.75,-49,566,-928,25.6,3.9,-19.9,25.5,4.0,-19.6,5.73,2.35,-22.9,29.9
2013-03-03 02:10:00,0.0,1.9391,0.0007,406.16,0.40,246.8,31.9,138.06,30.88,24.66,36.42,0.04,-272.75,-272.75,-49,567,-928,25.6,3.8,-19.9,25.5,4.0,-19.6,5.73,2.35,-22.8,29.9
2013-03-03 02:11:00,0.0,1.9392,0.0009,406.24,0.41,249.0,30.7,138.06,30.88,24.66,36.42,0.04,-272.75,-272.75,-49,567,-928,25.6,3.9,-19.9,25.5,4.0,-19.6,5.73,2.35,-22.9,29.9
2013-03-03 02:12:00,0.0,1.9393,0.0009,406.17,0.45,251.7,33.3,138.06,30.88,24.66,36.42,0.04,-272.75,-272.75,-49,567,-927,25.6,3.8,-19.9,25.5,4.0,-19.6,5.73,2.34,-22.9,29.9
2013-03-03 02:13:00,0.0,1.9389,0.0009,406.18,0.43,249.3,29.4,138.06,30.88,24.66,36.42,0.04,-272.75,-272.75,-49,567,-928,25.6,3.8,-19.9,25.5,4.0,-19.6,5.73,2.34,-22.9,29.9
2013-03-03 02:14:00,0.0,1.9387,0.0008,406.18,0.41,248.9,31.7,138.06,30.88,24.66,36.42,0.04,-272.75,-272.76,-49,567,-928,25.6,3.9,-19.8,25.5,4.0,-19.6,5.73,2.34,-22.9,29.9
2013-03-03 02:15:00,0.0,1.9386,0.0007,406.23,0.48,244.2,28.1,138.06,30.89,24.66,36.42,0.04,-272.75,-272.76,-49,566,-928,25.6,3.8,-20.0,25.5,3.9,-19.7,5.73,2.34,-22.9,29.9
2013-03-03 02:16:00,0.0,1.9391,0.0009,406.17,0.35,252.2,28.2,138.06,30.89,24.65,36.42,0.04,-272.75,-272.75,-49,567,-928,25.6,3.8,-20.1,25.5,3.9,-19.8,5.73,2.33,-22.9,29.9